Terminal Aerodrome Forecast
Issued by NWS Boston, MA

Home | Current Version | Previous Version | Text Only | Print | Product List | Glossary On
Versions: 1 2 3 4 5 6 7 8 9 10 11 12 13 14 15 16 17 18 19 20 21 22 23 24 25 26 27 28 29 30 31 32 33 34 35 36 37
000
FTUS41 KBOX 172322
TAFBOS
TAF
KBOS 172322Z 1800/1906 17006KT P6SM SCT060
     FM180200 23005KT P6SM SKC
     FM181100 29007KT P6SM FEW250
     FM181700 35007KT P6SM SCT250
     FM181900 05008KT P6SM BKN050
     FM190200 36009KT P6SM SCT250=

USA.gov is the U.S. government's official web portal to all federal, state and local government web resources and services.